Weather Roundup
Issued by NWS Corpus Christi, TX

Home | Current Version | Previous Version | Text Only | Print | Product List | Glossary On
Versions: 1 2 3 4 5 6 7 8 9 10 11 12 13 14 15 16 17 18 19 20 21 22 23 24 25 26 27 28 29 30 31 32 33 34 35 36 37 38 39 40 41 42 43 44 45 46 47 48 49 50
000
ASUS44 KCRP 061310
HRRCRP

SOUTH TEXAS REGIONAL WEATHER ROUNDUP
NATIONAL WEATHER SERVICE CORPUS CHRISTI TX
800 AM CDT WED MAY 06 2015


TXZ229>244-061400-
...CORPUS CHRISTI AREA OBSERVATIONS...

CITY           SKY/WX    TMP DP  RH WIND       PRES   REMARKS
CORPUS CHRISTI MOSUNNY   76  71  85 SE15      29.91R
NAS CORPUS CHR PTSUNNY   76  73  91 SE14G21   29.92R
ROCKPORT       PTSUNNY   77  72  84 SE14G23   29.91R
KINGSVILLE NAS CLOUDY    77  74  90 SE13      29.90S
ALICE          CLOUDY    76  72  87 SE9       29.89S
FALFURRIAS     CLOUDY    75  71  88 SE8       29.89S
$$

...VICTORIA AREA OBSERVATIONS...

CITY           SKY/WX    TMP DP  RH WIND       PRES   REMARKS
VICTORIA       CLOUDY    75  73  93 SE12      29.95R
BEEVILLE       CLOUDY    74  74 100 SE9       29.92R
PLEASANTON     CLOUDY    72  69  91 E8        29.91S FOG
SAN ANTONIO    CLOUDY    73  69  87 SE14      29.93R
$$

...LAREDO AREA OBSERVATIONS...

CITY           SKY/WX    TMP DP  RH WIND       PRES   REMARKS
LAREDO         PTSUNNY   75  71  87 SE12      29.88R
COTULLA        CLOUDY    74  68  81 SE12      29.88S
DEL RIO        CLOUDY    72  70  93 SE12      29.86R FOG
MCALLEN        PTSUNNY   78  72  81 SE14      29.87R
HEBBRONVILLE   RAIN      73  71  91 SE9       29.90R
$$

...OTHER TEXAS OBSERVATIONS...

CITY           SKY/WX    TMP DP  RH WIND       PRES   REMARKS
BROWNSVILLE    MOSUNNY   77  72  84 SE16      29.88S
HOUSTON        CLOUDY    74  69  85 SE15      29.98R
COL. STATION   HVY RAIN  69  68  96 SW9       29.99S FOG
AUSTIN         CLOUDY    71  70  96 VRB7      29.95R
WACO           CLOUDY    69  66  90 SE10      29.96R
FORT WORTH     CLOUDY    69  66  90 S15       29.94S
WICHITA FALLS  PTSUNNY   68  65  90 S18       29.89R
LUBBOCK        PTSUNNY   63  59  87 SW13      29.89R
EL PASO        PTCLDY    61  41  47 CALM      29.93S
$$

...MARINE OBSERVATIONS...

STATION/POSITION TIME  SKY/WX   TEMP    WIND        PRES    VSBY  WAVE   SWELL
                                AIR SEA DIR/SP/G                  HT/PER HT/PER
                 (UTC)          (F)     (DEG/KT/KT) (MB)    (MI)  (FT/S) (FT/S)
PORT ARANSAS     1300            76 76  130/ 17/ 19 1013.4R
BUOY 90 E PORT A 1250            77 75  140/ 16/ 19 1013.8R         6/ 9   3/ 9
BUOY 45 SE BAFFI 1250            76 75  140/ 14/ 16 1012.3R         6/ 7   3/ 7
BUOY 200 E PT IS 1250            78 77  140/ 14/ 16 1014.1R         5/ 7   3/ 7
BUOY 15 E GALVES 1250            75 75  120/ 14/ 17 1015.0R         5/ 7   2/ 7
$$



USA.gov is the U.S. government's official web portal to all federal, state and local government web resources and services.